Wetterdaten: Montag, 17.11.2014
Datum Zeit Temp. A. Feuchte A. Luftdruck Regen Wind Richtung Richtung Sonnenschein ET UV Solar Taupunkt Windchill Windben Empfang
17.11.2014 00:00 3,3 C 85 % 1005,0 hPa 0,0 l/m 0,0 km/h (0 Bft) S 169 0 min 0,000 mm 0,0 UV-I 0 W/m 1,0 C 3,3 C 0,0 km/h (0 Bft) 0,00 %
17.11.2014 00:15 3,3 C 85 % 1004,9 hPa 0,0 l/m 0,0 km/h (0 Bft) S-SO 168 0 min 0,000 mm 0,0 UV-I 0 W/m 1,0 C 3,3 C 0,0 km/h (0 Bft) 0,00 %
17.11.2014 00:30 3,3 C 85 % 1004,9 hPa 0,0 l/m 0,0 km/h (0 Bft) S 169 0 min 0,000 mm 0,0 UV-I 0 W/m 1,0 C 3,3 C 0,0 km/h (0 Bft) 0,00 %
17.11.2014 00:45 3,1 C 85 % 1004,9 hPa 0,0 l/m 0,0 km/h (0 Bft) S 169 0 min 0,000 mm 0,0 UV-I 0 W/m 0,8 C 3,1 C 0,0 km/h (0 Bft) 0,00 %
17.11.2014 01:00 3,0 C 85 % 1005,1 hPa 0,0 l/m 0,0 km/h (0 Bft) S 169 0 min 0,000 mm 0,0 UV-I 0 W/m 0,7 C 3,0 C 0,0 km/h (0 Bft) 0,00 %
17.11.2014 01:15 3,0 C 85 % 1005,1 hPa 0,0 l/m 0,0 km/h (0 Bft) S-SW 199 0 min 0,000 mm 0,0 UV-I 0 W/m 0,7 C 3,0 C 0,0 km/h (0 Bft) 0,00 %
17.11.2014 01:30 3,2 C 85 % 1005,1 hPa 0,0 l/m 0,4 km/h (0 Bft) O 96 0 min 0,000 mm 0,0 UV-I 0 W/m 0,9 C 3,2 C 4,0 km/h (1 Bft) 0,00 %
17.11.2014 01:45 3,9 C 84 % 1004,9 hPa 0,0 l/m 0,4 km/h (0 Bft) O-SO 110 0 min 0,000 mm 0,0 UV-I 0 W/m 1,4 C 3,9 C 4,0 km/h (1 Bft) 0,00 %
17.11.2014 02:00 4,5 C 85 % 1004,9 hPa 0,0 l/m 1,4 km/h (1 Bft) S 173 0 min 0,000 mm 0,0 UV-I 0 W/m 2,2 C 4,5 C 4,0 km/h (1 Bft) 0,00 %
17.11.2014 02:15 4,8 C 85 % 1005,0 hPa 0,0 l/m 0,0 km/h (0 Bft) S 170 0 min 0,000 mm 0,0 UV-I 0 W/m 2,5 C 4,8 C 0,0 km/h (0 Bft) 0,00 %
17.11.2014 02:30 5,1 C 85 % 1005,0 hPa 0,0 l/m 0,0 km/h (0 Bft) SO 134 0 min 0,000 mm 0,0 UV-I 0 W/m 2,8 C 5,1 C 0,0 km/h (0 Bft) 0,00 %
17.11.2014 02:45 5,1 C 85 % 1004,7 hPa 0,0 l/m 0,7 km/h (0 Bft) SO 142 0 min 0,000 mm 0,0 UV-I 0 W/m 2,8 C 5,1 C 4,0 km/h (1 Bft) 0,00 %
17.11.2014 03:00 5,2 C 85 % 1004,8 hPa 0,0 l/m 0,0 km/h (0 Bft) NW 318 0 min 0,000 mm 0,0 UV-I 0 W/m 2,9 C 5,2 C 0,0 km/h (0 Bft) 0,00 %
17.11.2014 03:15 5,2 C 85 % 1004,7 hPa 0,0 l/m 0,0 km/h (0 Bft) O 81 0 min 0,000 mm 0,0 UV-I 0 W/m 2,9 C 5,2 C 0,0 km/h (0 Bft) 0,00 %
17.11.2014 03:30 5,5 C 84 % 1004,6 hPa 0,0 l/m 0,0 km/h (0 Bft) O-NO 73 0 min 0,000 mm 0,0 UV-I 0 W/m 3,0 C 5,5 C 0,0 km/h (0 Bft) 0,00 %
17.11.2014 03:45 5,5 C 84 % 1004,5 hPa 0,0 l/m 0,0 km/h (0 Bft) O-SO 103 0 min 0,000 mm 0,0 UV-I 0 W/m 3,0 C 5,5 C 0,0 km/h (0 Bft) 0,00 %
17.11.2014 04:00 5,7 C 85 % 1004,5 hPa 0,0 l/m 0,0 km/h (0 Bft) N 357 0 min 0,000 mm 0,0 UV-I 0 W/m 3,4 C 5,7 C 0,0 km/h (0 Bft) 0,00 %
17.11.2014 04:15 5,8 C 85 % 1004,6 hPa 0,0 l/m 0,4 km/h (0 Bft) SW 222 0 min 0,000 mm 0,0 UV-I 0 W/m 3,5 C 5,8 C 4,0 km/h (1 Bft) 0,00 %
17.11.2014 04:30 5,9 C 85 % 1004,6 hPa 0,0 l/m 0,7 km/h (0 Bft) S 176 0 min 0,000 mm 0,0 UV-I 0 W/m 3,6 C 5,9 C 4,0 km/h (1 Bft) 0,00 %
17.11.2014 04:45 6,0 C 84 % 1004,7 hPa 0,0 l/m 0,4 km/h (0 Bft) O-SO 103 0 min 0,000 mm 0,0 UV-I 0 W/m 3,5 C 6,0 C 4,0 km/h (1 Bft) 0,00 %
17.11.2014 05:00 6,0 C 84 % 1004,7 hPa 0,0 l/m 0,0 km/h (0 Bft) S 190 0 min 0,000 mm 0,0 UV-I 0 W/m 3,5 C 6,0 C 0,0 km/h (0 Bft) 0,00 %
17.11.2014 05:15 5,9 C 83 % 1004,7 hPa 0,0 l/m 0,0 km/h (0 Bft) NO 39 0 min 0,000 mm 0,0 UV-I 0 W/m 3,2 C 5,9 C 0,0 km/h (0 Bft) 0,00 %
17.11.2014 05:30 5,9 C 82 % 1004,8 hPa 0,0 l/m 0,7 km/h (0 Bft) NO 48 0 min 0,000 mm 0,0 UV-I 0 W/m 3,1 C 5,9 C 4,0 km/h (1 Bft) 0,00 %
17.11.2014 05:45 5,9 C 81 % 1005,0 hPa 0,0 l/m 0,0 km/h (0 Bft) O 94 0 min 0,000 mm 0,0 UV-I 0 W/m 2,9 C 5,9 C 0,0 km/h (0 Bft) 0,00 %
17.11.2014 06:00 5,8 C 80 % 1004,8 hPa 0,0 l/m 2,9 km/h (1 Bft) O-SO 107 0 min 0,000 mm 0,0 UV-I 0 W/m 2,6 C 5,8 C 7,9 km/h (2 Bft) 0,00 %
17.11.2014 06:15 5,7 C 80 % 1004,9 hPa 0,0 l/m 0,4 km/h (0 Bft) O-SO 114 0 min 0,000 mm 0,0 UV-I 0 W/m 2,5 C 5,7 C 4,0 km/h (1 Bft) 0,00 %
17.11.2014 06:30 5,7 C 80 % 1004,9 hPa 0,0 l/m 0,0 km/h (0 Bft) O-SO 114 0 min 0,000 mm 0,0 UV-I 0 W/m 2,5 C 5,7 C 4,0 km/h (1 Bft) 0,00 %
17.11.2014 06:45 5,7 C 80 % 1004,8 hPa 0,0 l/m 0,0 km/h (0 Bft) O-SO 114 0 min 0,000 mm 0,0 UV-I 0 W/m 2,5 C 5,7 C 5,0 km/h (1 Bft) 0,00 %
17.11.2014 07:00 5,7 C 80 % 1005,2 hPa 0,0 l/m 0,0 km/h (0 Bft) O-SO 114 0 min 0,000 mm 0,0 UV-I 0 W/m 2,5 C 5,7 C 5,0 km/h (1 Bft) 0,00 %
17.11.2014 07:15 5,7 C 80 % 1005,2 hPa 0,0 l/m 0,0 km/h (0 Bft) O-SO 114 0 min 0,000 mm 0,0 UV-I 0 W/m 2,5 C 5,7 C 6,0 km/h (2 Bft) 0,00 %
17.11.2014 07:30 5,7 C 80 % 1005,0 hPa 0,0 l/m 0,0 km/h (0 Bft) O-SO 114 0 min 0,000 mm 0,0 UV-I 0 W/m 2,5 C 5,7 C 6,0 km/h (2 Bft) 0,00 %
17.11.2014 07:45 5,7 C 80 % 1005,1 hPa 0,0 l/m 0,0 km/h (0 Bft) O-SO 114 0 min 0,000 mm 0,0 UV-I 0 W/m 2,5 C 5,7 C 7,0 km/h (2 Bft) 0,00 %
17.11.2014 08:00 5,7 C 80 % 1005,3 hPa 0,0 l/m 0,0 km/h (0 Bft) O-SO 114 0 min 0,000 mm 0,0 UV-I 0 W/m 2,5 C 5,7 C 7,0 km/h (2 Bft) 0,00 %
17.11.2014 08:15 5,7 C 80 % 1005,1 hPa 0,0 l/m 0,0 km/h (0 Bft) O-SO 114 0 min 0,000 mm 0,0 UV-I 0 W/m 2,5 C 5,7 C 8,0 km/h (2 Bft) 0,00 %
17.11.2014 08:30 5,7 C 80 % 1005,1 hPa 0,0 l/m 0,0 km/h (0 Bft) O-SO 114 0 min 0,000 mm 0,0 UV-I 0 W/m 2,5 C 5,7 C 8,0 km/h (2 Bft) 0,00 %
17.11.2014 08:45 5,7 C 80 % 1005,3 hPa 0,0 l/m 0,0 km/h (0 Bft) O-SO 114 0 min 0,000 mm 0,0 UV-I 0 W/m 2,5 C 5,7 C 9,0 km/h (2 Bft) 0,00 %
17.11.2014 09:00 5,7 C 80 % 1005,1 hPa 0,0 l/m 0,0 km/h (0 Bft) O-SO 114 0 min 0,000 mm 0,0 UV-I 0 W/m 2,5 C 5,7 C 9,0 km/h (2 Bft) 0,00 %
17.11.2014 09:15 5,7 C 80 % 1005,2 hPa 0,0 l/m 0,0 km/h (0 Bft) O-SO 114 0 min 0,000 mm 0,0 UV-I 0 W/m 2,5 C 5,7 C 10,0 km/h (2 Bft) 0,00 %
17.11.2014 09:30 5,7 C 80 % 1005,1 hPa 0,0 l/m 0,0 km/h (0 Bft) O-SO 114 0 min 0,000 mm 0,0 UV-I 0 W/m 2,5 C 5,7 C 10,0 km/h (2 Bft) 0,00 %
17.11.2014 09:45 6,8 C 78 % 1004,8 hPa 0,0 l/m 0,0 km/h (0 Bft) NW 307 15 min 0,000 mm 1,0 UV-I 186 W/m 3,2 C 6,8 C 0,0 km/h (0 Bft) 0,00 %
17.11.2014 10:00 6,7 C 78 % 1004,7 hPa 0,0 l/m 0,0 km/h (0 Bft) W-NW 301 15 min 0,000 mm 1,0 UV-I 297 W/m 3,1 C 6,7 C 0,0 km/h (0 Bft) 0,00 %
17.11.2014 10:15 7,3 C 78 % 1004,7 hPa 0,0 l/m 0,0 km/h (0 Bft) N-NW 348 15 min 0,000 mm 1,0 UV-I 345 W/m 3,7 C 7,3 C 0,0 km/h (0 Bft) 0,00 %
17.11.2014 10:30 7,8 C 76 % 1004,7 hPa 0,0 l/m 0,0 km/h (0 Bft) NO 51 15 min 0,000 mm 1,0 UV-I 315 W/m 3,8 C 7,8 C 0,0 km/h (0 Bft) 0,00 %
17.11.2014 10:45 7,9 C 74 % 1004,3 hPa 0,0 l/m 0,0 km/h (0 Bft) S-SO 156 15 min 0,000 mm 2,0 UV-I 550 W/m 3,6 C 7,9 C 0,0 km/h (0 Bft) 0,00 %
17.11.2014 11:00 8,4 C 74 % 1004,4 hPa 0,0 l/m 4,3 km/h (1 Bft) O 81 15 min 0,000 mm 2,0 UV-I 554 W/m 4,0 C 8,4 C 7,9 km/h (2 Bft) 0,00 %
17.11.2014 11:15 8,7 C 74 % 1004,2 hPa 0,0 l/m 0,0 km/h (0 Bft) O 92 15 min 0,000 mm 1,0 UV-I 447 W/m 4,3 C 8,7 C 0,0 km/h (0 Bft) 0,00 %
17.11.2014 11:30 8,7 C 73 % 1004,0 hPa 0,0 l/m 0,0 km/h (0 Bft) S 178 15 min 0,000 mm 1,0 UV-I 479 W/m 4,1 C 8,7 C 0,0 km/h (0 Bft) 0,00 %
17.11.2014 11:45 8,8 C 74 % 1003,8 hPa 0,0 l/m 0,0 km/h (0 Bft) NO 38 15 min 0,000 mm 1,0 UV-I 410 W/m 4,4 C 8,8 C 0,0 km/h (0 Bft) 0,00 %
17.11.2014 12:00 9,1 C 73 % 1003,9 hPa 0,0 l/m 0,0 km/h (0 Bft) O-SO 104 15 min 0,000 mm 1,0 UV-I 397 W/m 4,5 C 9,1 C 0,0 km/h (0 Bft) 0,00 %
17.11.2014 12:15 9,1 C 73 % 1003,9 hPa 0,0 l/m 2,2 km/h (1 Bft) O-SO 120 15 min 0,000 mm 1,0 UV-I 416 W/m 4,5 C 9,1 C 4,0 km/h (1 Bft) 0,00 %
17.11.2014 12:30 9,2 C 72 % 1003,6 hPa 0,0 l/m 3,2 km/h (1 Bft) O-SO 122 15 min 0,000 mm 1,0 UV-I 501 W/m 4,4 C 9,2 C 7,9 km/h (2 Bft) 0,00 %
17.11.2014 12:45 9,4 C 73 % 1003,5 hPa 0,0 l/m 1,8 km/h (1 Bft) SO 129 15 min 0,000 mm 1,0 UV-I 437 W/m 4,8 C 9,4 C 4,0 km/h (1 Bft) 0,00 %
17.11.2014 13:00 9,5 C 71 % 1003,6 hPa 0,0 l/m 0,0 km/h (0 Bft) O 88 15 min 0,000 mm 1,0 UV-I 422 W/m 4,5 C 9,5 C 0,0 km/h (0 Bft) 0,00 %
17.11.2014 13:15 9,9 C 71 % 1003,2 hPa 0,0 l/m 0,0 km/h (0 Bft) SO 124 15 min 0,000 mm 1,0 UV-I 471 W/m 4,9 C 9,9 C 0,0 km/h (0 Bft) 0,00 %
17.11.2014 13:30 9,9 C 71 % 1003,2 hPa 0,0 l/m 6,8 km/h (2 Bft) SO 135 15 min 0,000 mm 1,0 UV-I 404 W/m 4,9 C 9,6 C 7,9 km/h (2 Bft) 0,00 %
17.11.2014 13:45 10,0 C 71 % 1003,1 hPa 0,0 l/m 1,4 km/h (1 Bft) S-SW 193 15 min 0,000 mm 1,0 UV-I 371 W/m 5,0 C 10,0 C 4,0 km/h (1 Bft) 0,00 %
17.11.2014 14:00 9,8 C 71 % 1003,0 hPa 0,0 l/m 2,2 km/h (1 Bft) O-SO 122 15 min 0,000 mm 1,0 UV-I 345 W/m 4,8 C 9,8 C 4,0 km/h (1 Bft) 0,00 %
17.11.2014 14:15 9,8 C 72 % 1003,1 hPa 0,0 l/m 5,8 km/h (2 Bft) O 101 15 min 0,000 mm 1,0 UV-I 306 W/m 5,0 C 9,8 C 7,9 km/h (2 Bft) 0,00 %
17.11.2014 14:30 9,7 C 72 % 1003,0 hPa 0,0 l/m 0,0 km/h (0 Bft) S-SO 160 15 min 0,000 mm 1,0 UV-I 258 W/m 4,9 C 9,7 C 0,0 km/h (0 Bft) 0,00 %
17.11.2014 14:45 9,5 C 73 % 1003,0 hPa 0,0 l/m 0,7 km/h (0 Bft) O-SO 116 15 min 0,000 mm 1,0 UV-I 215 W/m 4,9 C 9,5 C 4,0 km/h (1 Bft) 0,00 %
17.11.2014 15:00 9,3 C 75 % 1003,1 hPa 0,0 l/m 1,8 km/h (1 Bft) O-SO 117 15 min 0,000 mm 1,0 UV-I 154 W/m 5,1 C 9,3 C 4,0 km/h (1 Bft) 0,00 %
17.11.2014 15:15 9,2 C 76 % 1003,3 hPa 0,0 l/m 0,0 km/h (0 Bft) S-SW 203 15 min 0,000 mm 1,0 UV-I 113 W/m 5,2 C 9,2 C 0,0 km/h (0 Bft) 0,00 %
17.11.2014 15:30 9,2 C 77 % 1003,1 hPa 0,0 l/m 0,0 km/h (0 Bft) O-NO 72 0 min 0,000 mm 0,0 UV-I 51 W/m 5,4 C 9,2 C 0,0 km/h (0 Bft) 0,00 %
17.11.2014 15:45 9,2 C 77 % 1002,9 hPa 0,0 l/m 0,0 km/h (0 Bft) O-NO 72 0 min 0,000 mm 0,0 UV-I 30 W/m 5,4 C 9,2 C 0,0 km/h (0 Bft) 0,00 %
17.11.2014 16:00 9,2 C 77 % 1003,2 hPa 0,0 l/m 0,0 km/h (0 Bft) O-NO 72 0 min 0,000 mm 0,0 UV-I 0 W/m 5,4 C 9,2 C 0,0 km/h (0 Bft) 0,00 %
17.11.2014 16:15 9,2 C 77 % 1003,1 hPa 0,0 l/m 0,0 km/h (0 Bft) O-NO 72 0 min 0,000 mm 0,0 UV-I 0 W/m 5,4 C 9,2 C 0,0 km/h (0 Bft) 0,00 %
17.11.2014 16:30 9,2 C 77 % 1002,9 hPa 0,0 l/m 0,0 km/h (0 Bft) O-NO 72 0 min 0,000 mm 0,0 UV-I 0 W/m 5,4 C 9,2 C 0,0 km/h (0 Bft) 0,00 %
17.11.2014 16:45 9,2 C 77 % 1003,2 hPa 0,0 l/m 0,0 km/h (0 Bft) O-NO 72 0 min 0,000 mm 0,0 UV-I 0 W/m 5,4 C 9,2 C 0,0 km/h (0 Bft) 0,00 %
17.11.2014 17:00 9,2 C 77 % 1003,1 hPa 0,0 l/m 0,0 km/h (0 Bft) O-NO 72 0 min 0,000 mm 0,0 UV-I 0 W/m 5,4 C 9,2 C 0,0 km/h (0 Bft) 0,00 %
17.11.2014 17:15 9,2 C 77 % 1003,2 hPa 0,0 l/m 0,0 km/h (0 Bft) O-NO 72 0 min 0,000 mm 0,0 UV-I 0 W/m 5,4 C 9,2 C 0,0 km/h (0 Bft) 0,00 %
17.11.2014 17:30 9,2 C 77 % 1003,3 hPa 0,0 l/m 0,0 km/h (0 Bft) O-NO 72 0 min 0,000 mm 0,0 UV-I 0 W/m 5,4 C 9,2 C 0,0 km/h (0 Bft) 0,00 %
17.11.2014 17:45 8,1 C 77 % 1003,5 hPa 0,0 l/m 0,0 km/h (0 Bft) O-NO 72 0 min 0,000 mm 0,0 UV-I 0 W/m 4,3 C 8,1 C 0,0 km/h (0 Bft) 0,00 %
17.11.2014 18:00 8,1 C 77 % 1003,3 hPa 0,0 l/m 0,0 km/h (0 Bft) O-NO 72 0 min 0,000 mm 0,0 UV-I 0 W/m 4,3 C 8,1 C 0,0 km/h (0 Bft) 0,00 %
17.11.2014 18:15 8,1 C 77 % 1003,4 hPa 0,0 l/m 0,0 km/h (0 Bft) O-NO 72 0 min 0,000 mm 0,0 UV-I 0 W/m 4,3 C 8,1 C 0,0 km/h (0 Bft) 0,00 %
17.11.2014 18:30 8,1 C 77 % 1003,2 hPa 0,0 l/m 0,0 km/h (0 Bft) O-NO 72 0 min 0,000 mm 0,0 UV-I 0 W/m 4,3 C 8,1 C 0,0 km/h (0 Bft) 0,00 %
17.11.2014 18:45 8,1 C 77 % 1002,9 hPa 0,0 l/m 0,0 km/h (0 Bft) O-NO 72 0 min 0,000 mm 0,0 UV-I 0 W/m 4,3 C 8,1 C 0,0 km/h (0 Bft) 0,00 %
17.11.2014 19:00 8,1 C 77 % 1003,0 hPa 0,0 l/m 0,0 km/h (0 Bft) O-NO 72 0 min 0,000 mm 0,0 UV-I 0 W/m 4,3 C 8,1 C 0,0 km/h (0 Bft) 0,00 %
17.11.2014 19:15 8,1 C 77 % 1003,2 hPa 0,0 l/m 0,0 km/h (0 Bft) O-NO 72 0 min 0,000 mm 0,0 UV-I 0 W/m 4,3 C 8,1 C 0,0 km/h (0 Bft) 0,00 %
17.11.2014 19:30 7,0 C 79 % 1003,0 hPa 0,0 l/m 4,3 km/h (1 Bft) O-SO 105 0 min 0,000 mm 0,0 UV-I 0 W/m 3,6 C 7,0 C 7,9 km/h (2 Bft) 0,00 %
17.11.2014 19:45 6,9 C 80 % 1003,2 hPa 0,0 l/m 2,9 km/h (1 Bft) O-NO 74 0 min 0,000 mm 0,0 UV-I 0 W/m 3,7 C 6,9 C 4,0 km/h (1 Bft) 0,00 %
17.11.2014 20:00 6,8 C 80 % 1003,4 hPa 0,0 l/m 6,5 km/h (2 Bft) O 88 0 min 0,000 mm 0,0 UV-I 0 W/m 3,6 C 6,7 C 11,9 km/h (2 Bft) 0,00 %
17.11.2014 20:15 6,8 C 80 % 1003,6 hPa 0,0 l/m 4,3 km/h (1 Bft) SO 131 0 min 0,000 mm 0,0 UV-I 0 W/m 3,6 C 6,8 C 7,9 km/h (2 Bft) 0,00 %
17.11.2014 20:30 6,9 C 79 % 1003,8 hPa 0,0 l/m 0,7 km/h (0 Bft) O-SO 113 0 min 0,000 mm 0,0 UV-I 0 W/m 3,5 C 6,9 C 4,0 km/h (1 Bft) 0,00 %
17.11.2014 20:45 6,9 C 80 % 1003,8 hPa 0,0 l/m 6,5 km/h (2 Bft) O 89 0 min 0,000 mm 0,0 UV-I 0 W/m 3,7 C 6,8 C 7,9 km/h (2 Bft) 0,00 %
17.11.2014 21:00 6,9 C 80 % 1003,6 hPa 0,0 l/m 0,0 km/h (0 Bft) O 89 0 min 0,000 mm 0,0 UV-I 0 W/m 3,7 C 6,9 C 0,0 km/h (0 Bft) 0,00 %
17.11.2014 21:15 6,9 C 80 % 1003,7 hPa 0,0 l/m 0,0 km/h (0 Bft) O 89 0 min 0,000 mm 0,0 UV-I 0 W/m 3,7 C 6,9 C 0,0 km/h (0 Bft) 0,00 %
17.11.2014 21:30 6,9 C 80 % 1003,9 hPa 0,0 l/m 0,0 km/h (0 Bft) O 89 0 min 0,000 mm 0,0 UV-I 0 W/m 3,7 C 6,9 C 0,0 km/h (0 Bft) 0,00 %
17.11.2014 21:45 6,9 C 80 % 1003,5 hPa 0,0 l/m 0,0 km/h (0 Bft) O 89 0 min 0,000 mm 0,0 UV-I 0 W/m 3,7 C 6,9 C 0,0 km/h (0 Bft) 0,00 %
17.11.2014 22:00 6,9 C 80 % 1003,0 hPa 0,0 l/m 0,0 km/h (0 Bft) O 89 0 min 0,000 mm 0,0 UV-I 0 W/m 3,7 C 6,9 C 0,0 km/h (0 Bft) 0,00 %
17.11.2014 22:15 6,9 C 80 % 1003,0 hPa 0,0 l/m 0,0 km/h (0 Bft) O 89 0 min 0,000 mm 0,0 UV-I 0 W/m 3,7 C 6,9 C 0,0 km/h (0 Bft) 0,00 %
17.11.2014 22:30 6,9 C 80 % 1002,9 hPa 0,0 l/m 0,0 km/h (0 Bft) O 89 0 min 0,000 mm 0,0 UV-I 0 W/m 3,7 C 6,9 C 0,0 km/h (0 Bft) 0,00 %
17.11.2014 22:45 6,9 C 80 % 1002,7 hPa 0,0 l/m 0,0 km/h (0 Bft) O 89 0 min 0,000 mm 0,0 UV-I 0 W/m 3,7 C 6,9 C 0,0 km/h (0 Bft) 0,00 %
17.11.2014 23:00 6,9 C 80 % 1002,5 hPa 0,0 l/m 0,0 km/h (0 Bft) O 89 0 min 0,000 mm 0,0 UV-I 0 W/m 3,7 C 6,9 C 0,0 km/h (0 Bft) 0,00 %
17.11.2014 23:15 6,9 C 80 % 1002,5 hPa 0,0 l/m 0,0 km/h (0 Bft) O 89 0 min 0,000 mm 0,0 UV-I 0 W/m 3,7 C 6,9 C 0,0 km/h (0 Bft) 0,00 %
17.11.2014 23:30 6,9 C 80 % 1002,3 hPa 0,0 l/m 0,0 km/h (0 Bft) O 89 0 min 0,000 mm 0,0 UV-I 0 W/m 3,7 C 6,9 C 0,0 km/h (0 Bft) 0,00 %
17.11.2014 23:45 6,9 C 80 % 1002,2 hPa 0,0 l/m 0,0 km/h (0 Bft) O 89 0 min 0,000 mm 0,0 UV-I 0 W/m 3,7 C 6,9 C 0,0 km/h (0 Bft) 0,00 %
_ Min-Zeit 01:00 13:00 23:45 - 00:00 - - - - - - 01:00 01:00 00:00 00:00
Minimum _ 3,0 C 71 % 1002,2 hPa - 0,0 km/h (0 Bft) - - - - - - 0,7 C 3,0 C 0,0 km/h (0 Bft) 0,00 %
_ Max-Zeit 13:45 00:00 08:00 00:00 13:30 - - 09:45 00:00 10:45 11:00 15:30 13:45 20:00 00:00
Maximum _ 10,0 C 85 % 1005,3 hPa 0,0 l/m 6,8 km/h
SO (2 Bft)
- - 15 min 0,000 mm 2,0 UV-I 554 W/m 5,4 C 10,0 C 11,9 km/h
O (2 Bft)
0,00 %
Durchschnitt _ 7,0 C 79 % 1004,0 hPa #0,0 l/m 0,7 km/h (0 Bft) O-SO - #5:45 h #0,000 mm 1,1 UV-I 339 W/m 3,6 C 7,0 C 2,5 km/h (1 Bft) 0,00 %